Location: West Point
(43.8965°N, 77.2791°W)
Time: 23:45:25
(UTC+00:00)

Daily predictions for brighter satellites

Satellite Brightness Start Highest point End
(mag) Time Altitude Azimuth Time Altitude Azimuth Time Altitude Azimuth
USA 215 4.3 21:51:18 10° NE 21:57:01 33° NNW 22:02:43 10° WNW
Cosmos 2151 2.9 21:56:05 10° N 22:00:16 77° E 22:04:25 10° SSE
GEOS 3 Rocket 4.3 21:58:18 10° NE 22:03:23 42° ESE 22:08:26 10° S
IRIDIUM 103 4.4 21:59:54 10° N 22:05:07 64° E 22:10:16 10° SSE
Cosmos 2084 Rocket 4.2 22:01:19 10° NW 22:05:27 56° WSW 22:09:34 10° SSE
CZ-2D R/B 4.0 22:03:20 10° ESE 22:05:43 20° ENE 22:08:07 10° NNE
Meteor 1-28 Rocket 2.8 22:02:24 10° NNE 22:05:44 72° ESE 22:09:02 10° S
Gbstr 26 Del rocket 3.2 22:02:44 10° WSW 22:06:57 54° NNW 22:10:42 10° NE
Cosmos 1655 Rocket 4.4 22:04:41 10° N 22:10:32 41° ENE 22:16:21 10° SE
Aureole 1 Rocket 4.0 22:07:19 10° SSE 22:11:28 37° E 22:16:36 10° NE
Cosmos 2297 Rocket 3.3 22:07:14 10° NW 22:12:41 50° WSW 22:18:07 10° S
Cosmos 1782 4.4 22:10:04 10° SW 22:13:18 31° WNW 22:16:33 10° NNW
SAR-Lupe-4 4.3 22:12:16 10° SE 22:15:25 30° ENE 22:18:35 10° N
EXPRESS MD2 2.8 22:13:37 10° SW 22:15:50 46° SE 22:18:41 11° ENE
Meteor 1-20 Rocket 4.2 22:10:27 10° N 22:15:56 86° W 22:21:26 10° S
ARIANE 5 R/B 2.8 22:11:55 10° SE 22:16:43 45° ENE 22:21:37 10° N
Cosmos 1726 Rocket 3.8 22:13:46 10° S 22:18:15 53° E 22:22:42 10° NNE
SL-16 R/B 4.0 22:19:18 10° ESE 22:20:18 10° E 22:21:17 10° E
IRIDIUM 106 4.4 22:18:10 10° N 22:23:26 88° W 22:28:38 10° S
Cosmos 1867 4.2 22:19:34 10° NW 22:24:58 64° WSW 22:30:19 10° SSE
UNK 3.7 22:21:10 10° NNE 22:25:44 74° ESE 22:30:16 10° S
Cosmos 1743 4.5 22:23:43 10° NNW 22:26:35 29° W 22:29:25 10° SSW
CORIOLIS 4.1 22:22:25 10° SSE 22:27:44 80° ENE 22:33:06 10° NNW
Cosmos 2266 Rocket 4.1 22:21:45 10° N 22:27:52 81° W 22:33:53 10° S
YAOGAN 1 3.9 22:26:23 10° ESE 22:29:09 17° ENE 22:31:55 10° NNE
Cosmos 1933 3.5 22:26:18 10° SSW 22:30:07 70° W 22:33:56 10° N
AQUARIUS 4.4 22:27:11 10° SE 22:31:22 44° ENE 22:35:34 10° N
Cosmos 1844 Rocket 4.2 22:29:16 10° N 22:32:46 16° NE 22:34:41 14° ENE
Cosmos 1980 Rocket 2.2 22:27:33 10° SSW 22:33:09 68° ESE 22:38:45 10° NNE
IRS-1C 4.1 22:28:45 10° SSE 22:33:59 64° ENE 22:39:15 10° N
NOSS 3-2 (C) 4.4 22:30:43 10° WSW 22:35:26 35° NW 22:41:02 10° NNE
Lacrosse 5 rocket 3.3 22:34:38 10° NNW 22:35:38 11° N 22:36:38 10° NNE
Cosmos 2219 3.5 22:32:23 10° NNW 22:37:55 46° ENE 22:43:25 10° SE
Meteor 2-20 4.5 22:32:50 10° S 22:38:54 63° E 22:44:58 10° NNE
Meteor 2-10 4.4 22:34:23 10° N 22:39:40 48° ENE 22:45:04 10° SSE
Cosmos 2263 Rocket 2.1 22:36:33 10° NNW 22:42:14 72° ENE 22:47:55 10° SSE
USA 81 4.3 22:37:49 10° N 22:42:54 46° E 22:47:56 10° SSE
Okean 1-7 Rocket 4.5 22:39:07 10° NNW 22:43:22 51° W 22:47:34 10° S
SJ-12 3.6 22:41:02 10° SSE 22:44:47 70° ENE 22:48:34 10° N
SPOT 1/Viking Rocket 3.9 22:40:07 10° SE 22:44:57 40° ENE 22:49:47 10° N
CZ-4C R/B 4.0 22:38:15 10° NW 22:45:24 53° WSW 22:53:56 10° SSE
Meteor 1-26 Rocket 4.4 22:41:56 10° SSE 22:47:02 46° E 22:52:10 10° NNE
USA 308 4.1 22:44:54 10° SSE 22:47:06 18° ESE 22:47:47 17° ESE
SKYMED 2 4.1 22:45:05 12° NNE 22:48:43 36° E 22:52:44 10° SSE
COSMOS 2455 3.6 22:43:55 10° S 22:49:08 32° ESE 22:52:28 19° ENE
SMAP 3.5 22:45:37 10° S 22:50:14 67° WSW 22:54:53 10° NNW
MOS 1 Rocket 3.4 22:47:11 10° SSE 22:52:08 74° ENE 22:57:23 10° N
Cosmos 1538 Rocket 4.0 22:47:09 10° NNW 22:52:28 81° ENE 22:57:49 10° SSE
Cosmos 1553 Rocket 4.3 22:47:06 10° SSE 22:52:50 42° E 22:58:41 10° NNE
Meteor 1-5 Rocket 4.2 22:47:43 10° NNW 22:53:08 84° W 22:58:41 10° S
Cosmos 2369 3.8 22:48:07 10° S 22:53:40 56° ESE 22:58:19 15° NE
Landsat 7 3.9 22:49:18 10° S 22:53:56 78° WSW 22:58:37 10° NNW
COSMO-SKYMED 1 3.4 22:53:03 23° ENE 22:54:12 26° E 22:57:41 10° SSE
Cosmos 1953 Rocket 3.5 22:50:37 10° N 22:55:06 87° E 22:59:33 10° S
Cosmos 1805 3.2 22:52:00 10° N 22:55:13 41° ENE 22:58:25 10° SSE
Meteor 2-20 Rocket 4.4 22:53:51 10° S 22:59:57 64° E 23:05:52 10° NNE
Cosmos 1076 Rocket 3.8 22:57:45 10° NNW 23:02:04 71° W 23:06:21 10° S
SAR-Lupe-3 3.5 23:02:29 60° E 23:02:37 61° ESE 23:05:03 10° S
Cosmos 2227 Rocket 3.4 22:59:09 10° NW 23:04:30 44° WSW 23:09:48 10° S
NOSS 2-3 (C) 4.4 23:02:26 10° WSW 23:05:35 32° NW 23:07:57 16° NNE
Cosmos 2360 Rocket 4.2 23:03:43 10° ESE 23:03:50 10° ESE 23:03:50 10° ESE
Cosmos 2221 4.2 23:08:39 10° SE 23:09:58 17° SE 23:09:58 17° SE
Cosmos 1697 Rocket 4.3 23:07:30 10° WSW 23:12:24 30° NW 23:17:20 10° N
Cosmos 372 Rocket 4.2 23:07:17 10° SSW 23:12:25 70° WNW 23:17:16 11° NNE
Cosmos 1898 Rocket 3.5 23:10:53 10° SSW 23:16:01 80° WNW 23:20:26 15° NNE
BREEZE-M DEB (TANK) 4.1 23:13:45 10° WNW 23:17:35 67° NNE 23:25:47 20° ESE
Cosmos 1244 Rocket 4.4 23:11:21 10° N 23:17:37 75° E 23:23:46 10° SSE
Spot 4 Rocket 4.0 23:13:08 10° SSE 23:18:06 56° ENE 23:23:07 10° N
SL-16 R/B 4.4 23:17:12 10° N 23:22:11 26° WNW 23:27:09 10° WSW
IRS-P3 4.4 23:17:43 10° S 23:22:59 68° WSW 23:28:18 10° NNW
BREEZE-M DEB (TANK) 4.1 23:17:01 10° SW 23:24:59 45° SSE 23:26:18 35° ESE
Cosmos 2112 Rocket 4.3 23:20:04 10° N 23:25:02 42° ENE 23:25:57 38° E
CZ-4 R/B 4.3 23:21:18 10° S 23:25:14 81° WSW 23:29:12 10° NNW
Cosmos 2333 Rocket 3.1 23:20:31 10° SSE 23:24:52 28° ESE 23:24:52 28° ESE
SL-08 R/B 4.4 23:20:18 10° N 23:26:39 73° E 23:32:58 10° SSE
Helios 1A Rocket 4.3 23:28:50 20° SSE 23:28:50 20° SSE 23:30:04 10° S
Okean 1 3.3 23:23:49 10° SSW 23:27:23 68° W 23:29:13 27° N
Cosmos 1937 Rocket 3.5 23:24:20 10° SSW 23:29:30 83° WNW 23:32:50 23° NNE
Cosmos 1386 Rocket 4.4 23:23:36 10° N 23:29:38 57° E 23:35:44 10° SSE
Cosmos 2058 Rocket 3.8 23:26:27 10° SSW 23:30:50 55° W 23:35:15 10° N
Cosmos 2322 Rocket 3.6 23:27:56 10° SSE 23:30:37 21° SE 23:30:37 21° SE
Cosmos 858 Rocket 4.3 23:28:33 10° SSW 23:33:43 78° ESE 23:35:58 35° NNE
Cosmos 923 Rocket 3.8 23:28:32 10° NNW 23:33:45 81° ENE 23:38:55 10° SSE
USA 238 DEB 4.3 23:30:55 10° WSW 23:36:47 46° NW 23:41:16 19° NNE
USA 238 4.3 23:31:00 10° WSW 23:36:53 46° NW 23:41:22 20° NNE
Cosmos-2242 3.9 23:34:17 10° SSW 23:38:22 47° WNW 23:42:18 11° N
USA 215 4.3 23:36:57 25° NNE 23:38:52 29° N 23:44:17 10° NW
Meteor 1-14 Rocket 4.2 23:37:13 10° N 23:42:52 58° ENE 23:48:21 10° SSE
Cosmos 494 Rocket 4.3 23:38:24 10° N 23:42:43 46° NE 23:42:43 46° NE
MINOTAUR IV R/B 4.5 23:39:23 10° NNW 23:43:48 82° WSW 23:46:23 24° SSE
SL-24 R/B - RUBIN 2 4.0 23:42:36 10° SW 23:48:03 75° NW 23:49:24 49° NNE
Cosmos 1844 4.1 23:42:45 10° NNW 23:47:04 41° NNE 23:47:04 41° NNE
Cosmos 44 Rocket 3.9 23:43:09 10° NNW 23:47:12 42° NNE 23:47:12 42° NNE
Resurs 1-3 3.6 23:44:47 10° S 23:49:04 75° WSW 23:53:24 10° NNW
SWAS 4.5 23:49:02 10° SSW 23:52:55 70° W 23:52:55 70° W
Gbstr 26 Del rocket 4.5 23:50:33 10° WNW 23:53:00 23° NNW 23:53:00 23° NNW
Cosmos 2082 4.2 23:48:22 10° NNW 23:53:59 59° WSW 23:59:34 10° S
CZ-2D R/B 4.3 23:51:14 10° S 23:55:18 50° W 23:59:20 10° NNW
